User: anonymous   Login
Location: Unspecified
(0.0000°N, 0.0000°E)
Time: 18:55:31
(UTC+00:00)
Language:

AAUSAT CUBESAT 2 - Orbit

View from above orbital plane
View from above orbital plane
View from above satellite
View from above satellite

Ground track
Ground track

The orbit data is extracted from the following two-line orbital elements,

1 32788U 08021F   17084.90523007 +.00000921 +00000-0 +91972-4 0  9999
2 32788 097.5687 123.9914 0013231 054.5335 305.7118 14.93742412483148
Epoch (UTC): 25 March 2017 21:43:31
Eccentricity: 0.0013231
inclination: 97.5687°
perigee height: 577 km
apogee height: 595 km
right ascension of ascending node: 123.9914°
argument of perigee: 54.5335°
revolutions per day: 14.93742412
mean anomaly at epoch: 305.7118°
orbit number at epoch: 48314

The dashed part of the orbit path shows where the satellite is in the earth's shadow,  

DLR